CAPE
903 1180 1652 1039 756 491 225 35 0 0 0 30 143 107 49 10 12 18 0 0 0 0 0 11 61 76 69 99 82 47 30 2 0 0 0 0 0 0 0 2 3 6 6
972 1250 1648 1426 970 561 219 38 0 0 0 0 14 75 58 40 37 29 10 0 0 0 0 2 0 23 50 49 51 36 16 0 0 0 0 0 0 0 0 0 0 4 0
1033 1442 1364 1683 1334 987 185 57 5 0 0 0 1 69 100 54 38 14 0 0 0 0 0 1 0 2 6 0 0 1 0 0 0 0 1 0 0 0 0 0 0 0 1
1376 1081 1190 1876 1496 940 261 82 13 0 0 2 20 25 31 27 12 0 0 0 0 0 0 0 0 0 0 0 0 0 0 0 0 0 0 0 0 0 0 0 0 13 41
1269 998 1523 1795 1556 1048 401 151 28 0 23 80 58 21 0 0 0 0 0 0 0 0 0 0 0 0 0 0 0 0 1 0 3 10 3 0 0 1 0 0 0 0 0
1010 1441 1727 1812 1628 1261 732 178 45 0 8 54 80 23 0 0 0 0 0 2 0 0 0 1 4 1 0 0 0 0 0 0 0 0 2 2 5 40 32 5 38 38 5
1364 1509 1646 1975 1801 1371 701 315 52 4 2 26 0 0 9 13 0 14 45 7 0 0 0 1 4 9 0 0 1 0 0 1 0 5 2 13 26 63 60 37 190 233 255
1536 1582 1678 1809 1736 1385 841 548 218 40 20 30 21 0 44 0 34 111 69 0 0 0 0 1 6 1 6 54 54 40 22 10 0 1 3 10 77 57 57 66 76 58 104
955 1624 1520 1471 1397 1157 889 660 447 214 107 107 95 62 87 69 404 235 126 32 0 0 0 34 72 72 75 37 4 0 0 0 0 0 0 0 4 4 20 10 0 26 145
694 1270 1612 1485 1196 907 739 718 633 458 203 214 122 121 41 14 308 411 211 124 12 13 44 44 10 15 3 0 0 0 0 0 0 0 0 0 0 0 0 0 50 21 42
741 708 1230 1538 1313 989 753 652 645 536 291 145 50 60 9 0 37 73 19 20 62 20 13 0 0 0 0 0 0 0 0 0 0 0 0 0 0 0 29 6 12 20 3
674 732 732 1466 1454 1220 985 548 404 354 157 20 4 0 0 0 0 0 0 26 27 15 0 0 0 0 0 0 0 0 0 0 0 0 0 0 0 18 12 10 6 0 1
623 672 737 777 1055 1083 1038 573 383 222 290 73 24 0 0 0 0 0 0 0 0 0 0 0 0 0 0 0 0 0 0 0 0 0 0 0 1 20 1 9 0 0 3
625 688 812 860 943 1197 1097 938 688 365 372 221 92 43 0 0 0 0 0 0 2 0 0 0 0 0 0 0 0 0 0 0 0 0 0 0 0 0 2 0 0 0 0
363 700 808 970 1124 1152 1164 1170 834 512 380 278 232 104 0 0 0 0 1 0 0 0 0 0 0 0 0 0 0 0 0 0 0 0 0 0 0 0 0 0 0 0 0
8 393 840 1013 1268 1398 1347 1046 972 846 599 370 387 254 3 0 0 0 0 0 0 0 0 0 0 0 0 0 0 0 0 0 0 0 0 0 0 0 0 0 0 0 0
0 84 549 921 1206 1404 1355 1146 1188 998 815 545 475 403 60 7 0 0 0 0 0 0 0 0 0 0 0 0 0 0 0 0 0 0 0 0 0 0 0 0 0 0 0
0 0 61 783 982 1289 1413 1326 1106 1061 846 610 556 486 148 0 0 0 0 0 0 0 0 0 0 0 0 0 0 0 0 0 0 0 0 0 0 0 0 0 0 0 0
0 0 0 118 937 1111 1294 1270 1146 1142 774 613 582 387 226 0 0 0 0 0 0 0 0 0 0 0 0 0 0 0 0 0 0 0 0 0 0 0 0 0 0 0 0
0 0 0 0 11 459 1419 1286 1156 999 694 716 564 113 0 0 0 0 0 0 0 0 0 0 0 0 0 0 0 0 0 0 0 0 0 0 0 0 0 0 0 0 0
0 0 0 0 0 0 467 1282 1167 819 517 217 0 0 0 0 0 0 0 0 0 0 0 0 0 0 0 0 0 0 0 0 0 0 0 0 0 0 0 0 0 0 0
0 0 0 0 0 0 0 843 1182 204 0 0 0 0 0 0 0 0 0 0 0 0 0 0 0 0 0 0 0 0 0 0 0 0 0 0 0 0 0 0 0 0 0
0 0 0 0 0 0 172 231 0 0 0 0 0 0 0 0 0 0 0 0 0 0 0 0 0 0 0 0 0 0 0 0 0 0 0 0 0 0 0 0 0 0 0
0 0 0 0 0 5 807 0 0 0 0 0 0 0 0 0 0 0 0 0 0 0 0 0 0 0 0 0 0 0 0 0 0 0 0 0 0 0 0 0 0 0 0
0 0 0 0 0 328 598 0 0 0 0 0 0 0 0 0 0 0 0 0 0 0 0 0 0 0 0 0 0 0 0 0 0 0 0 0 0 0 0 0 0 0 0
0 0 0 0 222 444 244 0 0 0 0 0 0 0 0 0 0 0 0 0 0 0 0 0 0 0 0 0 0 0 0 0 0 0 0 0 0 0 0 0 0 0 0
CIN
-225 -170 -98 -132 -131 -141 -158 -204 -0 -0 -0 -49 -94 -123 -0 -0 -4 -3 -0 -0 -0 -0 -0 -0 -0 -0 -0 -78 -0 -0 -0 -4 -0 -0 -0 -0 -0 -0 -0 -0 -2 -2 -5
-257 -165 -90 -90 -112 -138 -170 -217 -0 -0 -0 -0 -12 -162 -0 -0 -0 -0 -3 -0 -0 -0 -0 -0 -0 -19 -1 -0 -0 -4 -4 -1 -0 -0 -0 -0 -0 -0 -0 -0 -0 -6 -0
-236 -145 -110 -64 -77 -89 -186 -216 -96 -0 -0 -0 -0 -120 -143 -0 -0 -0 -0 -0 -0 -0 -0 -0 -0 -55 -45 -0 -0 -32 -0 -0 -0 -0 -7 -0 -0 -0 -0 -0 -0 -0 -0
-152 -189 -135 -53 -64 -98 -168 -207 -180 -0 -0 -0 -0 -0 -0 -0 -0 -0 -0 -0 -0 -0 -0 -0 -0 -0 -0 -0 -0 -0 -0 -0 -0 -4 -0 -0 -0 -0 -0 -0 -0 -0 -286
-153 -179 -93 -58 -58 -84 -145 -175 -186 -0 -141 -176 -164 -0 -0 -0 -0 -0 -0 -0 -0 -0 -0 -0 -0 -0 -0 -0 -0 -0 -0 -0 -16 -42 -31 -0 -0 -3 -0 -0 -0 -0 -0
-133 -123 -74 -45 -50 -61 -90 -194 -233 -0 -21 -167 -149 -4 -0 -0 -0 -0 -0 -2 -0 -0 -0 -0 -0 -0 -0 -0 -0 -0 -0 -0 -0 -0 -11 -26 -37 -222 -211 -32 -220 -198 -319
-125 -141 -79 -29 -43 -58 -107 -166 -283 -126 -34 -220 -0 -0 -42 -78 -0 -3 -19 -2 -0 -0 -0 -0 -0 -0 -0 -0 -0 -0 -0 -15 -0 -43 -17 -27 -92 -212 -190 -234 -71 -28 -31
-124 -112 -65 -43 -48 -61 -99 -127 -204 -319 -357 -273 -244 -0 -159 -0 -116 -74 -71 -0 -0 -0 -0 -0 -0 -0 -0 -102 -116 -148 -188 -267 -0 -46 -16 -65 -194 -214 -213 -224 -169 -217 -160
-83 -120 -77 -75 -76 -86 -108 -133 -154 -200 -217 -196 -165 -164 -120 -140 -29 -35 -46 -99 -0 -0 -0 -61 -64 -83 -88 -150 -44 -0 -0 -0 -0 -0 -0 -0 -65 -162 -315 -372 -0 -325 -121
-110 -89 -81 -70 -99 -127 -148 -143 -152 -160 -199 -177 -188 -145 -206 -86 -56 -23 -38 -39 -127 -127 -74 -91 -151 -175 -141 -0 -0 -0 -0 -0 -0 -0 -0 -0 -0 -0 -0 -0 -274 -349 -308
-108 -103 -104 -80 -74 -108 -141 -157 -151 -174 -218 -240 -282 -245 -186 -0 -120 -129 -106 -153 -68 -110 -114 -0 -0 -0 -0 -0 -0 -0 -0 -0 -0 -0 -0 -0 -0 -0 -230 -0 -47 -149 -0
-131 -110 -92 -60 -67 -69 -100 -184 -197 -212 -273 -374 -247 -10 -0 -0 -0 -0 -0 -177 -131 -141 -0 -0 -0 -0 -0 -0 -0 -0 -0 -0 -0 -0 -0 -0 -0 -0 -0 -0 -0 -0 -0
-119 -107 -95 -63 -82 -71 -69 -187 -196 -240 -208 -301 -350 -22 -0 -0 -0 -0 -0 -0 -0 -0 -0 -0 -0 -0 -0 -0 -0 -0 -0 -0 -0 -0 -0 -0 -0 -0 -0 -0 -0 -0 -0
-79 -105 -91 -62 -34 -55 -78 -93 -104 -175 -191 -199 -256 -286 -0 -0 -0 -0 -0 -0 -42 -0 -0 -0 -0 -0 -0 -0 -0 -0 -0 -0 -0 -0 -0 -0 -0 -0 -0 -0 -0 -0 -0
-41 -57 -89 -52 -31 -24 -49 -63 -70 -111 -162 -168 -175 -220 -0 -0 -0 -0 -18 -0 -0 -0 -0 -0 -0 -0 -0 -0 -0 -0 -0 -0 -0 -0 -0 -0 -0 -0 -0 -0 -0 -0 -0
-34 -44 -56 -73 -39 -20 -24 -46 -49 -54 -63 -127 -129 -137 -147 -0 -0 -0 -0 -0 -0 -0 -0 -0 -0 -0 -0 -0 -0 -0 -0 -0 -0 -0 -0 -0 -0 -0 -0 -0 -0 -0 -0
-0 -61 -50 -54 -45 -53 -28 -28 -29 -50 -34 -92 -115 -83 -199 -197 -0 -0 -0 -0 -0 -0 -0 -0 -0 -0 -0 -0 -0 -0 -0 -0 -0 -0 -0 -0 -0 -0 -0 -0 -0 -0 -0
-0 -0 -61 -21 -38 -32 -69 -38 -45 -52 -33 -91 -110 -89 -148 -0 -0 -0 -0 -0 -0 -0 -0 -0 -0 -0 -0 -0 -0 -0 -0 -0 -0 -0 -0 -0 -0 -0 -0 -0 -0 -0 -0
-0 -0 -0 -95 -44 -58 -95 -58 -60 -40 -78 -127 -113 -123 -154 -0 -0 -0 -0 -0 -0 -0 -0 -0 -0 -0 -0 -0 -0 -0 -0 -0 -0 -0 -0 -0 -0 -0 -0 -0 -0 -0 -0
-0 -0 -0 -0 -18 -103 -81 -81 -43 -48 -108 -105 -106 -349 -0 -0 -0 -0 -0 -0 -0 -0 -0 -0 -0 -0 -0 -0 -0 -0 -0 -0 -0 -0 -0 -0 -0 -0 -0 -0 -0 -0 -0
-0 -0 -0 -0 -0 -0 -83 -66 -48 -129 -193 -266 -1 -0 -0 -0 -0 -0 -0 -0 -0 -0 -0 -0 -0 -0 -0 -0 -0 -0 -0 -0 -0 -0 -0 -0 -0 -0 -0 -0 -0 -0 -0
-0 -0 -0 -0 -0 -0 -0 -39 -73 -234 -0 -0 -0 -0 -0 -0 -0 -0 -0 -0 -0 -0 -0 -0 -0 -0 -0 -0 -0 -0 -0 -0 -0 -0 -0 -0 -0 -0 -0 -0 -0 -0 -0
-0 -0 -0 -0 -0 -0 -161 -204 -0 -0 -0 -0 -0 -0 -0 -0 -0 -0 -0 -0 -0 -0 -0 -0 -0 -0 -0 -0 -0 -0 -0 -0 -0 -0 -0 -0 -0 -0 -0 -0 -0 -0 -0
-0 -0 -0 -0 -0 -100 -140 -0 -0 -0 -0 -0 -0 -0 -0 -0 -0 -0 -0 -0 -0 -0 -0 -0 -0 -0 -0 -0 -0 -0 -0 -0 -0 -0 -0 -0 -0 -0 -0 -0 -0 -0 -0
-0 -0 -0 -0 -2 -91 -139 -0 -0 -0 -0 -0 -0 -0 -0 -0 -0 -0 -0 -0 -0 -0 -0 -0 -0 -0 -0 -0 -0 -0 -0 -0 -0 -0 -0 -0 -0 -0 -0 -0 -0 -0 -0
-0 -0 -0 -0 -124 -77 -201 -0 -0 -0 -0 -0 -0 -0 -0 -0 -0 -0 -0 -0 -0 -0 -0 -0 -0 -0 -0 -0 -0 -0 -0 -0 -0 -0 -0 -0 -0 -0 -0 -0 -0 -0 -0
Wind_Speed
12 13 18 17 16 14 13 12 11 11 10 9 10 11 13 12 11 12 12 12 11 10 9 11 13 15 11 12 13 12 10 9 8 7 5 4 7 8 8 7 6 6 5
18 15 18 17 17 15 13 12 11 10 9 8 9 11 12 12 11 11 12 11 11 11 10 11 12 13 14 14 12 10 9 7 6 4 4 2 3 7 7 7 7 5 7
18 16 14 17 16 15 14 12 11 9 8 9 8 8 11 12 11 10 12 12 12 12 12 12 12 12 12 11 9 8 7 6 3 5 7 2 4 8 7 6 5 4 4
17 15 14 18 17 16 14 12 10 9 10 11 12 13 12 11 11 13 11 11 11 12 12 12 11 11 10 9 8 7 5 4 3 6 4 3 6 8 7 6 6 5 7
17 15 15 19 17 16 15 13 11 9 9 11 11 10 10 10 10 11 9 10 10 10 10 10 10 9 9 8 6 6 8 2 6 7 3 5 3 6 7 5 5 6 6
16 15 20 19 17 15 14 13 12 11 10 12 11 10 9 8 7 7 8 10 9 8 8 7 7 7 7 5 4 5 5 5 9 6 2 4 5 8 6 6 5 5 5
15 15 16 21 18 16 14 12 12 11 12 11 10 10 9 8 5 2 6 11 9 7 6 6 6 7 6 5 4 4 3 5 6 6 3 5 5 8 6 7 9 8 7
17 16 14 19 18 17 15 13 12 12 12 11 10 9 9 6 3 4 12 10 9 7 6 6 6 6 4 5 3 3 3 5 6 6 5 6 9 8 8 8 9 10 10
13 16 13 13 15 16 16 14 11 11 10 10 9 8 9 7 7 14 13 11 8 7 6 5 5 5 5 4 4 4 5 7 5 4 9 4 10 10 8 9 9 10 11
8 14 15 12 11 10 9 14 14 11 9 9 9 8 9 7 9 11 11 9 8 7 6 6 5 4 4 3 2 3 6 8 6 4 5 4 11 9 7 7 11 10 13
7 7 14 15 12 11 10 8 11 13 11 9 9 10 8 4 6 7 9 9 9 8 7 5 5 4 4 3 3 3 6 3 6 5 3 11 11 8 11 10 11 14 12
8 7 8 16 15 13 10 10 6 6 5 6 6 7 5 6 4 9 8 10 9 8 8 6 4 3 3 2 2 4 3 6 4 5 3 11 7 10 11 12 13 13 12
9 6 7 8 13 12 9 9 6 6 6 6 10 8 7 5 5 5 4 4 4 6 3 4 2 2 3 3 4 4 3 3 3 3 8 13 10 11 9 13 12 12 12
10 10 9 9 8 13 9 8 8 6 7 6 6 9 5 4 4 4 4 5 5 4 4 3 2 3 3 5 4 4 5 3 2 3 7 13 11 11 10 11 12 12 12
8 10 10 9 8 10 10 8 5 7 9 6 5 6 5 5 5 4 4 4 4 2 4 3 4 4 4 4 4 4 5 5 5 4 3 13 11 11 10 11 11 11 11
7 9 11 11 8 7 8 11 7 6 5 7 5 6 7 5 5 5 5 5 2 4 4 4 4 3 3 3 3 3 3 4 3 7 4 5 11 9 9 9 10 10 11
8 8 10 11 11 12 9 9 8 8 6 6 6 6 6 5 7 7 5 4 3 3 5 4 4 3 4 3 4 2 3 3 3 3 6 4 5 7 7 7 9 10 11
7 10 10 13 12 12 12 8 8 8 7 8 7 5 6 9 10 6 5 4 4 4 4 4 3 3 3 4 3 4 1 1 1 4 5 4 4 3 4 5 8 10 10
9 9 9 11 15 14 11 7 7 8 6 8 8 6 7 10 9 6 5 5 5 4 4 3 3 3 3 3 4 2 2 2 2 3 4 5 4 4 2 5 7 11 9
11 9 10 8 9 10 11 9 4 5 6 6 7 7 11 8 9 7 5 5 5 5 4 3 3 3 3 2 3 3 2 1 2 2 2 2 4 4 1 1 2 4 12
8 8 9 10 10 7 7 10 7 5 6 5 6 10 9 9 10 8 5 6 6 5 5 4 3 4 4 4 2 4 1 2 2 2 2 2 4 3 2 3 2 2 3
9 9 9 9 13 11 8 7 5 6 4 6 6 7 6 7 10 8 8 6 7 5 6 5 4 2 2 4 2 0 3 4 4 3 1 2 1 1 2 2 2 3 2
13 12 9 9 9 12 8 10 8 7 6 4 5 5 5 6 6 11 9 7 6 6 5 4 4 4 2 2 4 3 3 1 3 3 1 2 3 1 2 3 3 2 1
11 12 10 8 9 10 15 12 17 10 10 3 6 6 3 5 7 10 10 8 7 5 6 4 4 2 3 2 2 3 2 3 1 4 3 4 4 4 5 3 4 3 3
8 7 10 10 8 10 14 14 11 10 6 9 8 12 8 6 8 9 10 8 7 5 5 7 4 4 3 3 2 1 2 0 3 3 5 4 5 4 5 5 4 4 5
8 8 7 10 9 9 14 15 14 15 14 12 12 10 8 7 7 9 9 7 7 7 7 5 5 5 4 3 2 1 1 1 1 1 2 3 5 4 3 5 6 5 5
Wind_Direction
131 144 143 142 137 135 129 121 113 106 104 111 115 121 120 114 106 94 79 70 64 61 69 65 58 58 61 83 89 81 70 65 56 43 38 51 65 47 47 35 8 15 66
133 145 145 144 141 138 130 120 112 105 103 111 127 135 134 126 114 102 86 75 70 68 74 72 67 63 69 65 70 72 67 57 39 0 322 233 138 82 48 28 8 356 25
134 140 147 145 140 137 130 125 120 115 115 123 129 141 140 127 115 98 90 76 72 74 76 75 71 68 69 69 66 61 56 47 18 311 303 266 191 83 65 25 8 346 343
136 140 143 144 140 136 133 130 121 115 123 123 121 115 117 120 116 102 95 83 75 75 77 76 73 72 70 67 62 58 53 54 315 303 294 78 58 59 48 21 355 352 2
133 155 137 140 140 139 138 136 129 121 121 135 121 118 118 124 115 108 104 97 85 83 79 76 75 72 69 64 59 46 42 11 315 297 295 104 82 66 45 21 349 331 333
143 127 136 142 142 139 140 142 137 132 134 137 123 113 113 108 113 123 123 116 102 91 82 70 68 66 63 60 53 46 33 348 317 287 167 133 95 64 32 354 323 310 306
105 128 139 143 144 142 143 143 140 140 144 145 129 112 106 96 91 120 136 128 116 101 84 64 55 61 66 65 59 49 18 341 301 303 33 102 87 53 15 344 343 338 324
127 136 143 144 147 148 148 149 147 148 146 152 138 124 108 86 34 216 142 132 122 103 81 68 65 70 65 59 50 27 339 308 313 314 49 69 47 29 5 10 10 3 359
133 132 144 152 152 153 154 153 155 156 159 155 151 141 119 95 81 115 130 131 119 104 91 72 77 89 86 69 41 7 325 313 309 307 68 45 33 20 9 6 5 16 31
137 143 149 154 153 156 160 157 158 159 165 159 153 135 131 126 113 119 122 123 121 116 103 96 88 96 107 110 81 332 309 313 282 65 58 35 29 10 5 17 48 42 43
151 164 154 155 165 168 163 167 165 161 163 166 159 152 156 175 169 136 122 126 128 129 119 113 121 156 167 180 177 291 333 332 11 71 57 36 25 10 59 54 52 52 43
168 179 168 161 167 172 164 150 176 169 166 167 169 170 194 196 154 136 137 138 143 143 142 149 173 186 208 190 232 310 31 9 351 80 48 39 27 66 63 59 53 44 41
174 176 183 162 164 163 158 160 177 170 181 194 180 181 194 132 131 137 142 158 157 169 176 175 180 81 45 36 26 3 38 14 15 63 52 46 50 74 63 60 52 44 42
172 174 174 185 168 161 149 168 179 174 183 200 181 176 139 130 160 173 169 175 184 167 135 94 83 94 40 33 33 9 6 4 35 95 64 61 60 63 61 59 50 43 39
182 167 167 170 170 162 166 174 184 199 177 192 158 156 144 166 174 182 139 104 101 86 96 89 64 41 45 31 16 34 10 10 25 108 84 78 69 65 59 52 45 35 29
225 172 166 174 173 166 179 167 184 193 204 168 160 160 162 167 172 121 101 104 111 95 77 84 77 52 26 41 354 22 28 10 36 103 114 98 94 75 60 47 35 24 18
206 189 174 172 174 171 202 171 180 182 216 139 151 151 162 136 111 108 106 106 113 93 93 67 49 49 28 16 358 10 66 26 11 92 122 125 117 108 89 56 27 7 4
207 200 182 181 177 175 181 197 182 170 200 147 145 145 160 123 113 107 118 135 123 96 88 77 50 36 39 33 353 331 47 86 356 98 85 91 112 107 79 57 27 358 355
232 208 192 174 177 179 174 204 180 183 149 153 143 149 130 117 115 119 131 142 116 98 89 104 59 75 42 7 314 318 46 349 187 99 119 116 116 73 36 18 5 352 341
235 227 188 169 172 168 169 189 182 152 140 144 139 128 124 123 122 124 144 124 115 110 103 84 101 74 61 353 310 320 152 258 112 142 161 138 145 130 126 315 10 356 354
247 244 206 170 178 170 167 180 172 147 133 106 104 117 124 134 141 147 144 128 126 116 113 119 101 86 20 353 19 348 287 178 162 218 213 198 124 173 159 74 42 12 340
232 247 228 196 177 183 187 179 155 134 106 115 117 111 117 136 159 143 132 123 116 110 96 81 74 104 80 32 59 306 359 340 346 246 80 98 108 152 64 49 3 316 341
213 228 238 202 180 182 157 112 94 83 83 84 106 105 129 155 160 132 123 123 123 115 116 107 89 73 123 24 62 124 29 316 321 338 329 52 353 27 317 299 281 266 335
220 211 226 219 191 171 144 138 157 161 157 142 131 130 147 149 127 121 118 120 119 116 113 121 99 92 90 113 38 45 87 138 113 329 333 336 336 345 336 326 302 287 289
246 237 201 206 192 158 155 149 158 143 121 129 124 137 147 132 121 117 119 124 125 117 115 114 104 87 68 100 100 47 10 316 214 185 281 305 341 334 326 314 312 295 278
246 228 220 185 166 150 147 150 163 155 146 141 150 145 153 135 129 122 114 125 119 116 118 113 102 88 86 80 64 38 135 150 315 356 304 311 284 289 322 305 291 285 275